TimeMST,TemperatureF,Dew PointF,Humidity,Sea Level PressureIn,VisibilityMPH,Wind Direction,Wind SpeedMPH,Gust SpeedMPH,PrecipitationIn,Events,Conditions,WindDirDegrees,DateUTC
12:53 AM,37.0,21.0,52,29.79,10.0,NW,8.1,-,N/A,,Clear,320,2012-11-22 07:53:00
1:53 AM,41.0,21.9,47,29.81,10.0,NW,10.4,-,N/A,,Clear,320,2012-11-22 08:53:00
2:53 AM,41.0,21.0,45,29.81,10.0,NW,9.2,-,N/A,,Clear,310,2012-11-22 09:53:00
3:53 AM,37.9,19.9,48,29.84,10.0,WNW,9.2,-,N/A,,Clear,300,2012-11-22 10:53:00
4:53 AM,36.0,19.9,52,29.91,10.0,WNW,5.8,-,N/A,,Clear,300,2012-11-22 11:53:00
5:53 AM,37.9,21.0,51,29.93,10.0,WNW,8.1,-,N/A,,Clear,290,2012-11-22 12:53:00
6:53 AM,39.0,21.0,49,29.98,10.0,WNW,8.1,-,N/A,,Clear,300,2012-11-22 13:53:00
7:53 AM,48.0,25.0,41,30.02,10.0,NNW,13.8,-,N/A,,Clear,330,2012-11-22 14:53:00
8:53 AM,48.9,30.9,50,30.06,10.0,North,23.0,40.3,N/A,,Clear,350,2012-11-22 15:53:00
9:53 AM,50.0,33.1,52,30.12,10.0,North,23.0,32.2,N/A,,Clear,350,2012-11-22 16:53:00
10:53 AM,51.1,32.0,48,30.13,10.0,North,26.5,33.4,N/A,,Clear,350,2012-11-22 17:53:00
11:53 AM,55.0,23.0,29,30.13,10.0,NNW,24.2,35.7,N/A,,Clear,340,2012-11-22 18:53:00
12:53 PM,55.0,18.0,23,30.15,10.0,North,28.8,36.8,N/A,,Clear,350,2012-11-22 19:53:00
1:53 PM,53.1,12.0,20,30.17,10.0,North,27.6,39.1,N/A,,Clear,360,2012-11-22 20:53:00
2:53 PM,51.1,5.0,15,30.20,10.0,North,27.6,35.7,N/A,,Clear,350,2012-11-22 21:53:00
3:53 PM,48.0,10.0,22,30.27,10.0,North,20.7,-,N/A,,Clear,360,2012-11-22 22:53:00
4:53 PM,43.0,12.0,28,30.32,10.0,North,13.8,-,N/A,,Clear,350,2012-11-22 23:53:00
5:53 PM,37.0,14.0,39,30.36,10.0,NNW,10.4,-,N/A,,Clear,340,2012-11-23 00:53:00
6:53 PM,34.0,14.0,44,30.39,10.0,NNW,5.8,-,N/A,,Scattered Clouds,340,2012-11-23 01:53:00
7:53 PM,32.0,14.0,48,30.41,10.0,WNW,6.9,-,N/A,,Clear,290,2012-11-23 02:53:00
8:53 PM,30.9,14.0,50,30.45,10.0,WNW,9.2,-,N/A,,Clear,290,2012-11-23 03:53:00
9:53 PM,28.9,14.0,54,30.47,10.0,WNW,8.1,-,N/A,,Clear,300,2012-11-23 04:53:00
10:53 PM,30.0,14.0,51,30.48,10.0,WNW,11.5,-,N/A,,Clear,300,2012-11-23 05:53:00
11:53 PM,30.0,14.0,51,30.50,10.0,WNW,10.4,-,N/A,,Clear,290,2012-11-23 06:53:00